TimeEST,TemperatureF,Dew PointF,Humidity,Sea Level PressureIn,VisibilityMPH,Wind Direction,Wind SpeedMPH,Gust SpeedMPH,PrecipitationIn,Events,Conditions,WindDirDegrees,DateUTC
12:23 AM,42.8,42.8,100,29.68,2.0,Calm,Calm,-,0.02,Rain,Light Rain,0,2012-12-16 05:23:00
12:53 AM,43.0,42.1,97,29.69,2.0,Calm,Calm,-,0.03,,Overcast,0,2012-12-16 05:53:00
1:09 AM,42.8,42.8,100,29.67,1.8,Calm,Calm,-,0.01,Rain,Light Rain,0,2012-12-16 06:09:00
1:43 AM,44.6,42.8,93,29.66,2.0,SSW,3.5,-,0.03,Rain,Light Rain,200,2012-12-16 06:43:00
1:53 AM,44.1,43.0,96,29.67,2.5,Calm,Calm,-,0.03,,Overcast,0,2012-12-16 06:53:00
2:05 AM,44.6,42.8,93,29.65,3.0,Calm,Calm,-,N/A,,Overcast,0,2012-12-16 07:05:00
2:13 AM,44.6,42.8,93,29.65,3.0,Calm,Calm,-,N/A,,Overcast,0,2012-12-16 07:13:00
2:53 AM,45.0,44.1,97,29.66,5.0,South,3.5,-,N/A,,Overcast,190,2012-12-16 07:53:00
3:27 AM,46.4,44.6,93,29.65,3.0,South,4.6,-,N/A,,Overcast,190,2012-12-16 08:27:00
3:53 AM,46.9,46.0,97,29.65,4.0,SSW,5.8,-,0.00,Rain,Light Rain,200,2012-12-16 08:53:00
4:53 AM,48.0,46.9,96,29.64,3.0,SSW,8.1,-,0.01,,Overcast,200,2012-12-16 09:53:00
5:26 AM,48.2,46.4,93,29.63,3.0,SSW,6.9,-,0.01,Rain,Light Rain,200,2012-12-16 10:26:00
5:53 AM,48.9,46.9,93,29.64,4.0,South,9.2,-,0.01,,Overcast,190,2012-12-16 10:53:00
6:14 AM,48.2,46.4,93,29.63,5.0,SSW,8.1,-,0.00,,Overcast,200,2012-12-16 11:14:00
6:53 AM,48.9,48.0,97,29.64,4.0,SSW,6.9,-,0.01,Rain,Light Rain,210,2012-12-16 11:53:00
7:34 AM,48.2,48.2,100,29.63,5.0,SSW,8.1,-,0.01,Rain,Light Rain,200,2012-12-16 12:34:00
7:50 AM,48.2,48.2,100,29.64,4.0,SSW,6.9,-,0.01,Rain,Light Rain,200,2012-12-16 12:50:00
7:53 AM,48.9,48.0,97,29.65,4.0,SSW,4.6,-,0.02,Rain,Light Rain,200,2012-12-16 12:53:00
8:46 AM,48.2,48.2,100,29.63,6.0,SW,5.8,-,0.00,Rain,Light Rain,230,2012-12-16 13:46:00
8:53 AM,48.9,48.0,97,29.65,6.0,SSW,3.5,-,0.00,Rain,Light Rain,210,2012-12-16 13:53:00
9:01 AM,48.2,48.2,100,29.64,6.0,West,4.6,-,0.00,Rain,Light Rain,260,2012-12-16 14:01:00
9:51 AM,50.0,48.2,94,29.63,4.0,South,6.9,-,0.01,,Overcast,190,2012-12-16 14:51:00
9:53 AM,50.0,48.9,96,29.64,4.0,SSW,6.9,-,0.01,,Overcast,200,2012-12-16 14:53:00
10:53 AM,51.1,48.9,92,29.64,4.0,SSW,8.1,-,0.00,Rain,Light Rain,210,2012-12-16 15:53:00
11:53 AM,51.1,46.0,83,29.63,10.0,SW,11.5,-,0.00,,Overcast,230,2012-12-16 16:53:00
12:53 PM,51.1,46.0,83,29.62,10.0,SW,12.7,-,N/A,,Overcast,230,2012-12-16 17:53:00
1:53 PM,50.0,44.1,80,29.62,10.0,WSW,10.4,-,N/A,,Overcast,240,2012-12-16 18:53:00
2:53 PM,50.0,44.1,80,29.61,10.0,SW,9.2,-,N/A,,Overcast,230,2012-12-16 19:53:00
3:13 PM,50.0,44.6,82,29.60,10.0,SW,9.2,-,N/A,,Overcast,230,2012-12-16 20:13:00
3:38 PM,50.0,44.6,82,29.58,10.0,SW,6.9,-,N/A,,Overcast,230,2012-12-16 20:38:00
3:53 PM,50.0,44.1,80,29.60,10.0,SW,8.1,-,N/A,,Overcast,220,2012-12-16 20:53:00
4:53 PM,48.9,44.1,83,29.62,10.0,SW,6.9,-,N/A,,Overcast,220,2012-12-16 21:53:00
5:53 PM,48.0,44.1,86,29.63,10.0,West,5.8,-,N/A,,Overcast,260,2012-12-16 22:53:00
6:53 PM,46.0,44.1,93,29.63,9.0,West,4.6,-,N/A,,Overcast,260,2012-12-16 23:53:00
7:53 PM,46.0,44.1,93,29.65,10.0,WSW,6.9,-,0.01,,Overcast,250,2012-12-17 00:53:00
8:10 PM,46.4,44.6,93,29.64,7.0,West,6.9,-,N/A,,Overcast,260,2012-12-17 01:10:00
8:31 PM,44.6,42.8,93,29.64,10.0,West,5.8,-,N/A,,Overcast,280,2012-12-17 01:31:00
8:41 PM,44.6,42.8,93,29.65,10.0,West,4.6,-,N/A,,Overcast,270,2012-12-17 01:41:00
8:53 PM,45.0,42.1,90,29.65,10.0,West,4.6,-,N/A,,Overcast,270,2012-12-17 01:53:00
9:35 PM,44.6,42.8,93,29.65,9.0,West,5.8,-,N/A,,Overcast,280,2012-12-17 02:35:00
9:53 PM,44.1,42.1,93,29.66,10.0,West,8.1,-,N/A,,Overcast,280,2012-12-17 02:53:00
10:03 PM,44.6,41.0,87,29.65,10.0,West,11.5,-,N/A,,Overcast,260,2012-12-17 03:03:00
10:32 PM,44.6,39.2,81,29.66,10.0,West,13.8,-,N/A,,Overcast,260,2012-12-17 03:32:00
10:46 PM,42.8,39.2,87,29.67,10.0,WSW,13.8,-,N/A,,Overcast,240,2012-12-17 03:46:00
10:53 PM,43.0,39.0,86,29.68,10.0,WSW,12.7,-,N/A,,Overcast,250,2012-12-17 03:53:00
11:08 PM,42.8,39.2,87,29.68,8.0,WSW,15.0,-,N/A,,Overcast,250,2012-12-17 04:08:00
11:40 PM,42.8,39.2,87,29.68,5.0,West,9.2,-,0.00,Rain,Light Rain,270,2012-12-17 04:40:00
11:53 PM,42.1,39.9,92,29.69,6.0,West,9.2,-,0.00,,Overcast,270,2012-12-17 04:53:00